Regional Weather Roundup
Issued by NWS

Home | Current Version | Previous Version | Graphics & Text | Print | Product List | Glossary On
Versions: 1 2 3 4 5 6 7 8 9 10 11 12 13 14 15 16 17 18 19 20 21 22 23 24 25 26 27 28 29 30 31 32 33 34 35 36 37 38 39 40 41 42 43 44 45 46 47 48 49 50
000
ASUS43 KIND 242209
RWRIN

WEATHER ROUNDUP FOR INDIANA
NATIONAL WEATHER SERVICE INDIANAPOLIS IN
600 PM EDT FRI OCT 24 2014

NOTE: "FAIR" INDICATES FEW OR NO CLOUDS BELOW 12,000 FEET WITH NO
SIGNIFICANT WEATHER AND/OR OBSTRUCTIONS TO VISIBILITY.

* - STATION DOES NOT REPORT WEATHER SUCH AS PRECIPITATION OR FOG.

+ - STATION NOT QUALITY CONTROLLED BY THE NATIONAL WEATHER SERVICE.
    USE DATA WITH CAUTION...ESPECIALLY DEWPOINT AND RELATIVE
    HUMIDITY OBSERVATIONS.

INZ001>003-010>013-019-020-242300-
NORTHWEST INDIANA

CITY           SKY/WX    TMP DP  RH WIND       PRES   REMARKS
GARY /AIRPORT/ PTCLDY    68  46  45 SW7       29.98S
KNOX *+        CLEAR     65  47  51 SW6       29.97S
LA PORTE +     CLEAR     65  50  58 W5        29.99R
MONTICELLO +   PTCLDY    64  52  64 SW9       29.99S
RENSSELAER +   CLEAR     66  45  45 SW6       29.99R
VALPARAISO     CLEAR     64  48  56 W8        29.99R

$$

LMZ046-743>745-242300-
SOUTHERN LAKE MICHIGAN

STATION/POSITION TIME  TEMP WIND        PRES
                       AIR  DIR/SP/G
                 (UTC) (F)  (DEG/KT/KT) (MB)
MICHIGAN CITY    2200   56   30/  3/  3   N/A

$$

INZ004-005-014>016-021>024-242300-
NORTH CENTRAL INDIANA

CITY           SKY/WX    TMP DP  RH WIND       PRES   REMARKS
ELKHART        PTCLDY    63  48  59 W3        29.98F
GOSHEN         PTCLDY    62  49  62 SW7       29.98S
LOGANSPORT +   MOCLDY    61  50  67 SW8       30.01R
PERU/GRISSOM   MOCLDY    63  57  80 W12       30.00R
ROCHESTER +    PTCLDY    64  52  63 SW7       30.00S
SOUTH BEND     CLEAR     63  50  62 NW8       29.99R
WARSAW +       MOCLDY    63  50  63 W8        29.99S

$$

INZ006>009-017-018-025>027-242300-
NORTHEAST INDIANA

CITY           SKY/WX    TMP DP  RH WIND       PRES   REMARKS
ANGOLA *+      CLOUDY    63  52  67 CALM      29.99R
AUBURN +       MOCLDY    59  48  67 CALM      30.00S
FORT WAYNE     MOCLDY    60  51  72 S7        30.00F
HUNTINGTON +   MOCLDY    62  52  68 SW6       29.99F

$$

INZ028-029-035-036-043>045-051>053-242300-
WEST CENTRAL INDIANA

CITY           SKY/WX    TMP DP  RH WIND       PRES   REMARKS
CRAWFORDSVL +  PTCLDY    63  50  63 SW7       30.02
GREENCASTLE +  MOCLDY    63  52  67 CALM      30.02S
LAFAYETTE      PTCLDY    64  52  64 W7        30.00S
TERRE HAUTE    PTCLDY    68  52  56 W7        30.02S

$$

INZ030>032-037>040-046>048-054>057-064-065-242300-
CENTRAL INDIANA

CITY           SKY/WX    TMP DP  RH WIND       PRES   REMARKS
CP ATTERBURY + MOCLDY    64  48  55 W3        30.04R
FRANKFORT +    PTCLDY    64  53  65 SW9       30.03R
INDIANAPOLIS   MOCLDY    63  51  65 SW8       30.01S
-EAGLE CREEK   MOCLDY    65  51  60 SW6       30.01S
KOKOMO *+      MOCLDY    64  52  63 W12       30.01R
MARION +       MOCLDY    61  50  66 S8        30.01S
MT COMFORT *+  MOCLDY    63  45  51 SW3       30.03S
SHELBYVILLE    MOCLDY    67  49  52 W6        30.02S
ZIONSVILLE +   MOCLDY    64  50  59 W6        30.02S

$$

INZ033-034-041-042-049-050-058-059-242300-
EAST CENTRAL INDIANA

CITY           SKY/WX    TMP DP  RH WIND       PRES   REMARKS
MUNCIE         PTCLDY    63  50  62 W9        30.02R

$$

INZ060-061-067>069-081>083-085>088-242300-
SOUTHWEST INDIANA

CITY           SKY/WX    TMP DP  RH WIND       PRES   REMARKS
EVANSVILLE     MOSUNNY   67  52  58 SW7       30.05S
HUNTINGBURG *+ MOCLDY    66  52  59 CALM      30.05S
WASHINGTON +   PTCLDY    66  53  64 SW6       30.03S

$$

INZ062-063-066-070>080-084-089>092-242300-
SOUTH CENTRAL AND SOUTHEAST INDIANA

CITY           SKY/WX    TMP DP  RH WIND       PRES   REMARKS
BLOOMINGTON    MOCLDY    66  51  58 SW3       30.03F
SEYMOUR +      PTCLDY    64  50  59 SW5       30.04S

$$




USA.gov is the U.S. government's official web portal to all federal, state and local government web resources and services.